COSMOS 2251 DEB, 34574

Orbit data source: Space-Track

COSMOS 2251 DEB, 34574 is space debris in LEO originally from a launch on Wed, 16 Jun 1993 UTC launched from the Plesetsk Missile And Space Complex (PKMTR). The debris from Iridium 33, an American commercial communications satellite, has been tracked extensively since its accidental collision with the defunct Russian satellite Cosmos 2251 in 2009. This event, occurring at high speed in low Earth orbit (LEO), generated thousands of pieces of space debris, significantly increasing the risk of further collisions. The Iridium 33 debris cloud has impacted space traffic management and orbital debris mitigation strategies, making it a subject of ongoing study in space situational awareness.

Loading next visibility...
Identifier
34574, 1993-036VL
Orbit
LEO
Country
Flag of CISCIS
Related business
Manufacturer
Unknown
Mission
Spacecraft
Bus & Motor
Unknown
Mass
Unknown
Launch date (UTC)
1993-06-16 (33 years ago)
Launch vehicle
Unknown
Launch site
Plesetsk Missile And Space Complex (PKMTR)
Object type
Payload
Rocket body
Debris
Shape & HBR
Unknown shape, 0.1 m
Radar Cross Section
Medium (>0.1 m² and <1 m²)

Expand to show TLE details & history
Last TLE update: 1 day ago

TLE from 1 day ago
0 COSMOS 2251 DEB
1 34574U 93036VL  26173.60383355  .00003514  00000-0  53000-3 0  9990
2 34574  74.0678  30.5677 0063572   3.0287  27.9443 14.73380970916027
Epoch: 2026-06-22T14:29Z
TLE epoch observation values (Epoch: 2026-06-22T14:29:31.218Z)
Latitude
30.04686°
Longitude
-88.14746°
Altitude
614.363 km
Speed
7.576 km/s
True Right ascension
02h 40m 04s
True Declination
29° 53' 42"
Sunlit
Object was in daylight at epoch
Visualization orbit readout
Latitude
Unknown
Longitude
Unknown
Altitude
Unknown
Speed
Unknown
Apparent Right ascension
Unknown
Apparent Declination
Unknown
Sunlit
N/A
Visualization observer readout
Local Sidereal Time
09:27:31
Azimuth
Unknown
Elevation
Unknown
Doppler factor
Unknown
Orbital elements
Apogee altitude
692.541 km
Perigee altitude
603.21 km
Semi-major axis
7,026.012 km
Eccentricity
0.00636
Inclination
74.0678°
RAAN
30.5677°
Arg. of periapsis
3.0287°
True anomaly
28.28809°
Mean anomaly
27.9443°
Eccentric anomaly
28.11595°
Mean motion
3.68536 °/min
Orbital period
97.68 mins
BSTAR
0.00053
Loading maneuver chart data...
Computing Atmospheric mass density...

Documentation

Showing up to 5 results
|